| time (UTC) | temp F | wind direction | speed MPH | gust MPH | rain 1hr in | rain 24hr in | rain mn in | humidity % | barometer mb |
| 20260903084239 | 67 | 315 | 4.0 | 7.0 | 0.00 | 0.00 | 0.00 | 83 | 1014.0 |
| 20260903083233 | 67 | 203 | 4.0 | 8.0 | 0.00 | 0.00 | 0.00 | 83 | 1013.8 |
| 20260903082228 | 67 | 158 | 4.0 | 8.0 | 0.00 | 0.00 | 0.00 | 83 | 1013.8 |
| 20260903081228 | 66 | 180 | 4.0 | 9.0 | 0.00 | 0.00 | 0.00 | 82 | 1014.0 |
| 20260903080240 | 66 | 270 | 4.0 | 12.0 | 0.00 | 0.00 | 0.00 | 82 | 1014.0 |
| 20260903075232 | 66 | 158 | 4.0 | 8.0 | 0.00 | 0.00 | 0.00 | 82 | 1014.0 |
| 20260903074231 | 66 | 180 | 3.0 | 7.0 | 0.00 | 0.00 | 0.00 | 82 | 1014.0 |
| 20260903073236 | 65 | 248 | 4.0 | 0.0 | 0.00 | 0.00 | 0.00 | 82 | 1014.1 |
| 20260903072211 | 65 | 180 | 4.0 | 8.0 | 0.00 | 0.00 | 0.00 | 82 | 1014.1 |
| 20260903071217 | 65 | 248 | 4.0 | 11.0 | 0.00 | 0.00 | 0.00 | 82 | 1014.0 |
| 20260903070212 | 65 | 135 | 4.0 | 8.0 | 0.00 | 0.00 | 0.00 | 81 | 1014.0 |
| 20260903065211 | 65 | 180 | 5.0 | 8.0 | 0.00 | 0.00 | 0.00 | 81 | 1014.0 |
| 20260903064212 | 65 | 225 | 4.0 | 7.0 | 0.00 | 0.00 | 0.00 | 82 | 1014.0 |
| 20260903063708 | 65 | 158 | 4.0 | 9.0 | 0.00 | 0.00 | 0.00 | 82 | 1014.1 |
| 20260903062212 | 64 | 225 | 3.0 | 7.0 | 0.00 | 0.00 | 0.00 | 82 | 1014.1 |
| 20260903061210 | 64 | 225 | 3.0 | 7.0 | 0.00 | 0.00 | 0.00 | 83 | 1014.3 |
| 20260903060210 | 64 | 248 | 4.0 | 9.0 | 0.00 | 0.00 | 0.00 | 83 | 1014.3 |
| 20260903055656 | 64 | 180 | 3.0 | 6.0 | 0.00 | 0.00 | 0.00 | 84 | 1014.5 |
| 20260903054210 | 64 | 203 | 3.0 | 5.0 | 0.00 | 0.00 | 0.00 | 84 | 1014.5 |
| 20260903053211 | 63 | 180 | 4.0 | 10.0 | 0.00 | 0.00 | 0.00 | 85 | 1013.7 |
| 20260903052212 | 63 | 203 | 4.0 | 5.0 | 0.00 | 0.00 | 0.00 | 86 | 1013.7 |
| 20260903051647 | 63 | 180 | 3.0 | 6.0 | 0.00 | 0.00 | 0.00 | 85 | 1014.2 |
| 20260903050208 | 63 | 180 | 4.0 | 9.0 | 0.00 | 0.00 | 0.00 | 84 | 1014.2 |
| 20260903045208 | 64 | 180 | 4.0 | 8.0 | 0.00 | 0.00 | 0.00 | 83 | 1014.3 |
| 20260903044206 | 64 | 225 | 4.0 | 9.0 | 0.00 | 0.00 | 0.00 | 83 | 1014.3 |
| 20260903043204 | 64 | 135 | 3.0 | 7.0 | 0.00 | 0.00 | 0.00 | 83 | 1013.8 |
| 20260903042652 | 63 | 158 | 4.0 | 7.0 | 0.00 | 0.00 | 0.00 | 83 | 1013.8 |